W8UFO-13 Weather Reports


Display with metric or nautical units.
time (UTC)temp
F
wind
direction
speed
MPH
gust
MPH
rain 1hr
in
rain 24hr
in
rain mn
in
humidity
%
barometer
mb
20260906005018 81 0.0 0.0 0.00 0.04 0.04 82 1014.2
20260906004521 81 0.0 0.0 0.00 0.04 0.04 82 1014.2
20260906004021 81 0.0 0.0 0.00 0.04 0.04 82 1014.1
20260906003523 82 0.0 0.0 0.00 0.04 0.04 82 1014.0
20260906003020 82 0.0 0.0 0.00 0.04 0.04 82 1014.1
20260906002518 82 0.0 0.0 0.00 0.04 0.04 81 1014.1
20260906002022 83 0.0 0.0 0.00 0.04 0.04 80 1014.1
20260906001521 83 0.0 0.0 0.00 0.04 0.04 80 1014.0
20260906001021 83 0.0 1.0 0.00 0.04 0.04 79 1014.1
20260906000517 83 0.0 0.0 0.00 0.04 0.04 78 1014.1
20260906000017 84 0.0 1.0 0.00 0.04 0.04 78 1014.0
20260905235519 84 0.0 0.0 0.00 0.04 0.04 78 1014.0
20260905235020 85 0.0 1.0 0.00 0.04 0.04 77 1014.1
20260905234521 85 0.0 1.0 0.00 0.04 0.04 76 1014.1
20260905234019 85 0.0 0.0 0.00 0.04 0.04 75 1014.2
20260905233517 85 0.0 0.0 0.00 0.04 0.04 74 1014.0
20260905233019 86 0.0 0.0 0.00 0.04 0.04 75 1014.0
20260905232517 86 0.0 1.0 0.00 0.04 0.04 74 1014.1
20260905232019 86 0.0 0.0 0.00 0.04 0.04 73 1014.1
20260905231518 87 0.0 2.0 0.00 0.04 0.04 72 1014.0
20260905231017 87 0.0 1.0 0.00 0.04 0.04 73 1013.9
20260905230520 88 0.0 0.0 0.00 0.04 0.04 72 1013.8
20260905230017 88 0.0 2.0 0.00 0.04 0.04 71 1013.9
20260905225523 88 0.0 1.0 0.00 0.04 0.04 72 1013.9
20260905225016 88 203 1.0 1.0 0.00 0.04 0.04 72 1013.9
20260905224521 88 203 1.0 2.0 0.00 0.04 0.04 74 1013.9
20260905224019 88 203 2.0 3.0 0.00 0.04 0.04 74 1013.9
20260905223519 89 225 1.0 2.0 0.00 0.04 0.04 73 1014.0
20260905223017 89 158 2.0 3.0 0.00 0.04 0.04 71 1013.8
20260905222520 90 180 2.0 4.0 0.00 0.04 0.04 70 1013.8
20260905222017 90 0.0 2.0 0.00 0.04 0.04 69 1013.9
20260905221520 90 0.0 0.0 0.00 0.04 0.04 70 1013.8
20260905221020 90 248 1.0 2.0 0.00 0.04 0.04 69 1013.8
20260905220516 90 248 2.0 4.0 0.00 0.04 0.04 71 1014.0
20260905220021 90 0.0 2.0 0.00 0.04 0.04 70 1014.0
20260905215518 90 248 3.0 4.0 0.00 0.04 0.04 70 1014.1
20260905215021 91 248 1.0 2.0 0.00 0.04 0.04 70 1014.3
20260905214517 91 0.0 2.0 0.00 0.04 0.04 70 1014.3
20260905214019 91 0.0 1.0 0.00 0.04 0.04 70 1014.4
20260905213520 91 248 1.0 2.0 0.00 0.04 0.04 71 1014.3
20260905213020 92 293 2.0 3.0 0.00 0.04 0.04 70 1014.3
20260905212522 92 248 1.0 2.0 0.00 0.04 0.04 71 1014.3
20260905212024 92 0.0 1.0 0.00 0.04 0.04 71 1014.3
20260905211520 92 0.0 1.0 0.00 0.04 0.04 70 1014.3
20260905211020 93 248 1.0 2.0 0.00 0.04 0.04 71 1014.3
20260905210520 93 293 2.0 3.0 0.00 0.04 0.04 70 1014.3
20260905210021 93 315 1.0 3.0 0.00 0.04 0.04 70 1014.3
20260905205519 94 248 1.0 4.0 0.00 0.04 0.04 69 1014.3
20260905205019 94 135 2.0 3.0 0.00 0.04 0.04 66 1014.5
20260905204517 94 225 1.0 1.0 0.00 0.04 0.04 64 1014.5
20260905204024 94 0.0 1.0 0.00 0.04 0.04 64 1014.5
20260905203519 94 0.0 1.0 0.00 0.04 0.04 64 1014.6
20260905203021 93 0.0 1.0 0.00 0.04 0.04 65 1014.7
20260905202517 93 203 2.0 3.0 0.00 0.04 0.04 65 1014.7
20260905202020 93 225 1.0 2.0 0.00 0.04 0.04 65 1014.8
20260905201520 93 0.0 1.0 0.00 0.04 0.04 68 1014.9
20260905201018 92 68 1.0 2.0 0.00 0.04 0.04 68 1014.9
20260905200519 92 0.0 2.0 0.00 0.04 0.04 70 1015.0
20260905200016 91 0.0 0.0 0.00 0.04 0.04 72 1015.0
20260905195521 91 68 2.0 2.0 0.00 0.04 0.04 73 1015.1
20260905195017 91 270 1.0 2.0 0.00 0.04 0.04 72 1015.1
20260905194520 91 0.0 1.0 0.00 0.04 0.04 73 1015.1
20260905194019 91 0.0 1.0 0.00 0.04 0.04 75 1015.0
20260905193516 91 0.0 1.0 0.00 0.04 0.04 75 1015.1
20260905193020 89 0.0 1.0 0.00 0.04 0.04 78 1015.2
20260905192517 89 0 1.0 2.0 0.00 0.04 0.04 77 1015.3
20260905192020 88 0.0 0.0 0.00 0.04 0.04 81 1015.5
20260905191518 88 23 1.0 1.0 0.00 0.04 0.04 79 1015.7
20260905191020 88 0.0 0.0 0.00 0.04 0.04 79 1016.0
20260905190520 87 0.0 1.0 0.00 0.04 0.04 81 1016.1
20260905190021 86 0.0 1.0 0.00 0.04 0.04 82 1016.1
20260905185517 85 0.0 0.0 0.00 0.04 0.04 85 1016.1
20260905185021 85 0.0 0.0 0.00 0.04 0.04 86 1016.0
20260905184517 85 45 1.0 3.0 0.00 0.04 0.04 87 1015.9
20260905184018 83 113 1.0 2.0 0.00 0.04 0.04 89 1015.8
20260905183518 82 90 1.0 2.0 0.00 0.04 0.04 89 1015.8
20260905183020 81 90 2.0 3.0 0.00 0.04 0.04 90 1015.8
20260905182516 80 0.0 0.0 0.00 0.04 0.04 92 1015.7
20260905182021 79 0.0 0.0 0.01 0.04 0.04 94 1016.0
20260905181518 79 0.0 0.0 0.03 0.04 0.04 94 1016.1
20260905181020 79 0.0 0.0 0.04 0.04 0.04 95 1016.2
20260905180520 79 0.0 0.0 0.04 0.04 0.04 95 1016.1
20260905180018 78 0.0 0.0 0.04 0.04 0.04 94 1016.4
20260905175521 79 0.0 0.0 0.04 0.04 0.04 94 1016.3
20260905175020 79 0.0 1.0 0.04 0.04 0.04 93 1016.6
20260905174520 79 0.0 0.0 0.04 0.04 0.04 92 1016.5
20260905174023 79 0.0 0.0 0.04 0.04 0.04 92 1016.3
20260905173520 79 0.0 0.0 0.04 0.04 0.04 91 1016.6
20260905173020 80 0.0 0.0 0.04 0.04 0.04 88 1016.5
20260905172522 81 0.0 0.0 0.04 0.04 0.04 87 1017.0
20260905172021 82 0.0 0.0 0.03 0.03 0.03 83 1016.9
20260905171522 85 0.0 1.0 0.01 0.01 0.01 76 1017.1
20260905171021 87 0.0 1.0 0.00 0.00 0.00 74 1016.8
20260905170516 88 0.0 1.0 0.00 0.00 0.00 74 1016.9
20260905170018 89 0.0 1.0 0.00 0.00 0.00 73 1016.8
20260905165517 89 0.0 0.0 0.00 0.00 0.00 71 1016.9
20260905165017 90 338 1.0 1.0 0.00 0.00 0.00 70 1017.1
20260905164521 91 0.0 2.0 0.00 0.00 0.00 69 1017.2
20260905164017 92 90 2.0 2.0 0.00 0.00 0.00 67 1017.2
20260905163520 92 0.0 1.0 0.00 0.00 0.00 65 1017.5
20260905163017 92 68 1.0 2.0 0.00 0.00 0.00 66 1017.1
20260905162520 91 0.0 1.0 0.00 0.00 0.00 67 1017.0
20260905162019 91 90 1.0 3.0 0.00 0.00 0.00 69 1017.1
20260905161518 90 270 1.0 2.0 0.00 0.00 0.00 71 1017.0
20260905161020 90 248 2.0 4.0 0.00 0.00 0.00 69 1017.0
20260905160518 90 0.0 0.0 0.00 0.00 0.00 71 1017.1
20260905160019 89 225 1.0 2.0 0.00 0.00 0.00 73 1017.2
20260905155519 88 270 1.0 2.0 0.00 0.00 0.00 74 1017.2
20260905155019 88 225 1.0 2.0 0.00 0.00 0.00 76 1017.0
20260905154520 88 270 1.0 2.0 0.00 0.00 0.00 76 1017.1
20260905154019 87 225 1.0 2.0 0.00 0.00 0.00 77 1017.1
20260905153519 86 0.0 0.0 0.00 0.00 0.00 78 1017.2
20260905153017 85 0.0 0.0 0.00 0.00 0.00 79 1017.1
20260905152521 85 180 1.0 1.0 0.00 0.00 0.00 79 1017.2
20260905152022 85 0.0 1.0 0.00 0.00 0.00 80 1017.2
20260905151520 84 0.0 0.0 0.00 0.00 0.00 80 1017.1
20260905151017 84 0.0 1.0 0.00 0.00 0.00 80 1017.2
20260905150516 84 0.0 0.0 0.00 0.00 0.00 81 1017.3
20260905150017 84 0.0 0.0 0.00 0.00 0.00 82 1017.3
20260905145519 84 293 1.0 2.0 0.00 0.00 0.00 82 1017.3
20260905145019 83 0.0 1.0 0.00 0.00 0.00 82 1017.3
20260905144519 83 203 1.0 1.0 0.00 0.00 0.00 83 1017.5
20260905144020 82 270 1.0 1.0 0.00 0.00 0.00 83 1017.4
20260905143517 82 315 1.0 2.0 0.00 0.00 0.00 83 1017.4
20260905143022 82 338 1.0 2.0 0.00 0.00 0.00 83 1017.4
20260905142522 82 0.0 1.0 0.00 0.00 0.00 84 1017.4
20260905142019 82 0.0 0.0 0.00 0.00 0.00 84 1017.5
20260905141519 81 0.0 1.0 0.00 0.00 0.00 85 1017.6
20260905141019 81 0.0 0.0 0.00 0.00 0.00 86 1017.6
20260905140519 81 0.0 0.0 0.00 0.00 0.00 86 1017.6
20260905140019 81 0.0 1.0 0.00 0.00 0.00 85 1017.5
20260905135516 81 0.0 1.0 0.00 0.00 0.00 86 1017.6
20260905135018 81 0.0 1.0 0.00 0.00 0.00 85 1017.6
20260905134520 81 0.0 0.0 0.00 0.00 0.00 87 1017.7
20260905134020 80 0.0 1.0 0.00 0.00 0.00 87 1017.5
20260905133521 80 0.0 1.0 0.00 0.00 0.00 87 1017.5
20260905133019 80 0.0 1.0 0.00 0.00 0.00 89 1017.5
20260905132517 79 0.0 1.0 0.00 0.00 0.00 90 1017.6
20260905132017 79 0.0 0.0 0.00 0.00 0.00 90 1017.7
20260905131521 79 0.0 1.0 0.00 0.00 0.00 90 1017.7
20260905131016 78 0.0 0.0 0.00 0.00 0.00 90 1017.8
20260905130521 78 0.0 0.0 0.00 0.00 0.00 91 1017.8
20260905130019 78 0.0 0.0 0.00 0.00 0.00 92 1017.9
20260905125520 77 0.0 0.0 0.00 0.00 0.00 92 1017.9
20260905125016 77 0.0 0.0 0.00 0.00 0.00 94 1017.8
20260905124520 76 0.0 0.0 0.00 0.00 0.00 94 1017.8
20260905124018 76 0.0 0.0 0.00 0.00 0.00 95 1017.8
20260905123517 75 0.0 0.0 0.00 0.00 0.00 96 1017.9
20260905123020 75 0.0 0.0 0.00 0.00 0.00 96 1017.8
20260905122517 75 0.0 0.0 0.00 0.00 0.00 97 1017.7
20260905122018 74 0.0 0.0 0.00 0.00 0.00 96 1017.5
20260905121517 74 0.0 0.0 0.00 0.00 0.00 96 1017.5
20260905121018 74 0.0 0.0 0.00 0.00 0.00 96 1017.4
20260905120517 74 0.0 0.0 0.00 0.00 0.00 97 1017.4
20260905120021 73 0.0 0.0 0.00 0.00 0.00 96 1017.2
20260905115520 73 0.0 0.0 0.00 0.00 0.00 96 1017.1
20260905115019 73 0.0 0.0 0.00 0.00 0.00 96 1017.1
20260905114520 73 0.0 0.0 0.00 0.00 0.00 96 1017.1
20260905114019 73 0.0 0.0 0.00 0.00 0.00 96 1017.0
20260905113518 73 0.0 0.0 0.00 0.00 0.00 96 1017.0
20260905113019 73 0.0 0.0 0.00 0.00 0.00 96 1017.0
20260905112521 73 0.0 0.0 0.00 0.00 0.00 96 1016.9
20260905112020 73 0.0 0.0 0.00 0.00 0.00 96 1016.8
20260905111520 73 0.0 0.0 0.00 0.00 0.00 96 1016.8
20260905111020 73 0.0 0.0 0.00 0.00 0.00 96 1016.9
20260905110521 73 0.0 0.0 0.00 0.00 0.00 96 1016.8
20260905110017 73 0.0 0.0 0.00 0.00 0.00 96 1016.8
20260905105521 73 0.0 0.0 0.00 0.00 0.00 96 1016.9
20260905105017 73 0.0 0.0 0.00 0.00 0.00 96 1016.8
20260905104516 73 0.0 0.0 0.00 0.00 0.00 96 1016.8
20260905104018 73 0.0 0.0 0.00 0.00 0.00 96 1016.8
20260905103519 73 0.0 0.0 0.00 0.00 0.00 96 1016.6
20260905103019 73 0.0 0.0 0.00 0.00 0.00 95 1016.5
20260905102517 73 0.0 0.0 0.00 0.00 0.00 95 1016.4
20260905102019 73 0.0 0.0 0.00 0.00 0.00 95 1016.4
20260905101518 73 0.0 0.0 0.00 0.00 0.00 95 1016.4
20260905101020 73 0.0 0.0 0.00 0.00 0.00 95 1016.3
20260905100517 73 0.0 0.0 0.00 0.00 0.00 94 1016.2
20260905100019 73 0.0 0.0 0.00 0.00 0.00 94 1016.2
20260905095517 73 0.0 0.0 0.00 0.00 0.00 94 1016.2
20260905095019 74 0.0 0.0 0.00 0.00 0.00 94 1016.2
20260905094521 74 0.0 0.0 0.00 0.00 0.00 94 1016.2
20260905094020 74 0.0 0.0 0.00 0.00 0.00 94 1016.1
20260905093518 74 0.0 0.0 0.00 0.00 0.00 94 1016.1
20260905093023 74 0.0 0.0 0.00 0.00 0.00 93 1015.9
20260905092519 74 0.0 0.0 0.00 0.00 0.00 93 1016.0
20260905092016 74 0.0 0.0 0.00 0.00 0.00 93 1015.9
20260905091517 74 0.0 0.0 0.00 0.00 0.00 93 1015.9
20260905091020 74 0.0 0.0 0.00 0.00 0.00 93 1016.0
20260905090519 74 0.0 0.0 0.00 0.00 0.00 93 1016.0
20260905090021 74 0.0 0.0 0.00 0.00 0.00 92 1016.1
20260905085521 74 0.0 0.0 0.00 0.00 0.00 92 1016.1
20260905085018 75 0.0 0.0 0.00 0.00 0.00 92 1016.3
20260905084516 75 0.0 0.0 0.00 0.00 0.00 92 1016.4
20260905084020 75 0.0 0.0 0.00 0.00 0.00 92 1016.4
20260905083518 75 0.0 0.0 0.00 0.00 0.00 92 1016.6
20260905083016 75 0.0 0.0 0.00 0.00 0.00 91 1016.5
20260905082516 75 0.0 0.0 0.00 0.00 0.00 91 1016.5
20260905082019 75 0.0 0.0 0.00 0.00 0.00 91 1016.6
20260905081517 75 0.0 0.0 0.00 0.00 0.00 91 1016.6
20260905081021 75 0.0 0.0 0.00 0.00 0.00 91 1016.6
20260905080520 75 0.0 0.0 0.00 0.00 0.00 90 1016.6
20260905080020 75 0.0 0.0 0.00 0.00 0.00 90 1016.6
20260905075518 75 0.0 0.0 0.00 0.00 0.00 90 1016.7
20260905075019 75 0.0 0.0 0.00 0.00 0.00 90 1016.7
20260905074517 75 0.0 0.0 0.00 0.00 0.00 90 1016.8
20260905074018 75 0.0 0.0 0.00 0.00 0.00 90 1016.7
20260905073516 75 0.0 0.0 0.00 0.00 0.00 90 1016.8
20260905073017 75 0.0 0.0 0.00 0.00 0.00 90 1016.9
20260905072516 76 0.0 0.0 0.00 0.00 0.00 90 1016.9
20260905072020 75 0.0 0.0 0.00 0.00 0.00 91 1016.9
20260905071516 75 0.0 0.0 0.00 0.00 0.00 90 1016.9
20260905071017 75 0.0 0.0 0.00 0.00 0.00 90 1016.9
20260905070517 75 0.0 0.0 0.00 0.00 0.00 90 1016.9
20260905070020 76 0.0 0.0 0.00 0.00 0.00 90 1016.9
20260905065518 76 0.0 0.0 0.00 0.00 0.00 90 1017.1
20260905065020 76 0.0 0.0 0.00 0.00 0.00 89 1017.0
20260905064520 76 0.0 0.0 0.00 0.00 0.00 89 1016.8
20260905064016 76 0.0 0.0 0.00 0.00 0.00 89 1017.0
20260905063516 76 0.0 0.0 0.00 0.00 0.00 89 1017.1
20260905063017 76 0.0 0.0 0.00 0.00 0.00 89 1017.0
20260905062516 76 0.0 0.0 0.00 0.00 0.00 88 1017.0
20260905062020 76 0.0 0.0 0.00 0.00 0.00 88 1017.2
20260905061519 77 0.0 0.0 0.00 0.00 0.00 88 1017.3
20260905061020 77 0.0 0.0 0.00 0.00 0.00 87 1017.4
20260905060520 77 0.0 0.0 0.00 0.00 0.00 87 1017.2
20260905060017 77 0.0 0.0 0.00 0.00 0.00 87 1017.3
20260905055517 77 0.0 0.0 0.00 0.00 0.00 87 1017.3
20260905055016 77 0.0 0.0 0.00 0.00 0.00 87 1017.3
20260905054518 77 0.0 0.0 0.00 0.00 0.00 87 1017.2
20260905054018 77 0.0 0.0 0.00 0.00 0.00 86 1017.2
20260905053522 77 0.0 0.0 0.00 0.00 0.00 86 1017.2
20260905053021 78 0.0 0.0 0.00 0.00 0.00 86 1017.1
20260905052518 78 0.0 0.0 0.00 0.00 0.00 86 1017.3
20260905052021 78 0.0 1.0 0.00 0.00 0.00 87 1017.2
20260905051524 77 0.0 0.0 0.00 0.00 0.00 88 1017.1
20260905051017 78 0.0 0.0 0.00 0.00 0.00 88 1017.1
20260905050520 78 0.0 0.0 0.00 0.00 0.00 89 1017.2
20260905050017 78 0.0 0.0 0.00 0.00 0.00 89 1017.1
20260905045521 78 0.0 0.0 0.00 0.00 0.00 89 1017.1
20260905045020 78 0.0 0.0 0.00 0.00 0.00 88 1017.0
20260905044518 78 0.0 0.0 0.00 0.00 0.00 88 1017.1
20260905044020 78 0.0 0.0 0.00 0.00 0.00 88 1017.2
20260905043523 78 0.0 0.0 0.00 0.00 0.00 88 1017.1
20260905043021 78 0.0 0.0 0.00 0.00 0.00 87 1017.1
20260905042524 79 0.0 0.0 0.00 0.00 0.00 87 1017.1
20260905042022 79 0.0 0.0 0.00 0.00 0.00 87 1017.1
20260905041521 79 0.0 0.0 0.00 0.00 0.00 87 1017.1
20260905041022 79 0.0 0.0 0.00 0.00 0.00 87 1017.0
20260905040517 79 0.0 0.0 0.00 0.00 0.00 86 1016.9
20260905040020 79 0.0 0.0 0.00 0.00 0.00 86 1017.0
20260905035521 79 0.0 0.0 0.00 0.00 0.00 85 1017.1
20260905035020 80 0.0 0.0 0.00 0.00 0.00 86 1017.0
20260905034521 79 0.0 0.0 0.00 0.00 0.00 86 1016.9
20260905034023 79 0.0 0.0 0.00 0.00 0.00 85 1016.7
20260905033521 79 0.0 0.0 0.00 0.00 0.00 86 1016.8
20260905033022 79 0.0 0.0 0.00 0.00 0.00 86 1016.6
20260905032523 79 0.0 0.0 0.00 0.00 0.00 86 1016.7
20260905032022 80 0.0 0.0 0.00 0.00 0.00 85 1016.8
20260905031522 80 0.0 0.0 0.00 0.00 0.00 85 1016.7
20260905031016 80 0.0 0.0 0.00 0.00 0.00 85 1016.7
20260905030520 80 0.0 0.0 0.00 0.00 0.00 85 1016.7
20260905030017 80 0.0 0.0 0.00 0.00 0.00 84 1016.7
20260905025519 80 0.0 0.0 0.00 0.00 0.00 84 1016.7
20260905025017 80 0.0 0.0 0.00 0.00 0.00 83 1016.8
20260905024520 81 0.0 0.0 0.00 0.00 0.00 83 1016.7
20260905024019 81 0.0 0.0 0.00 0.00 0.00 83 1016.8
20260905023521 81 0.0 0.0 0.00 0.00 0.00 83 1016.9
20260905023016 81 0.0 0.0 0.00 0.00 0.00 83 1017.0
20260905022517 81 0.0 0.0 0.00 0.00 0.00 83 1017.2
20260905022020 81 0.0 0.0 0.00 0.00 0.00 83 1017.2
20260905021517 81 0.0 0.0 0.00 0.00 0.00 83 1017.1
20260905021020 81 0.0 0.0 0.00 0.00 0.00 83 1017.1
20260905020519 81 0.0 0.0 0.00 0.00 0.00 84 1017.3
20260905020019 82 0.0 0.0 0.00 0.00 0.00 84 1017.3
20260905015517 82 0.0 0.0 0.00 0.00 0.00 84 1017.2
20260905015019 82 0.0 0.0 0.00 0.00 0.00 84 1017.3
20260905014517 82 0.0 0.0 0.00 0.00 0.00 83 1017.2
20260905014019 82 0.0 0.0 0.00 0.00 0.00 83 1017.0
20260905013519 82 0.0 0.0 0.00 0.00 0.00 83 1017.1
20260905013017 83 0.0 0.0 0.00 0.00 0.00 83 1017.1
20260905012521 83 0.0 0.0 0.00 0.00 0.00 83 1017.2
20260905012018 83 0.0 0.0 0.00 0.00 0.00 83 1017.1
20260905011519 83 0.0 0.0 0.00 0.00 0.00 82 1016.9
20260905011019 83 0.0 0.0 0.00 0.00 0.00 82 1016.8
20260905010523 83 0.0 0.0 0.00 0.00 0.00 82 1016.9
20260905010021 84 0.0 0.0 0.00 0.00 0.00 81 1016.9
20260905005520 84 0.0 0.0 0.00 0.00 0.00 81 1016.9